Showing default

FLOCK 4H 29, 66732

Orbit data source: Space-Track

FLOCK 4H 29, 66732 is a payload satellite owned by Planet (US) in SSO that was launched on Fri, 28 Nov 2025 UTC via an FALCON 9 launch vehicle from the Air Force Western Test Range (AFWTR). Payload-class satellites include a variety of spacecraft equipped with specific instruments for various scientific and technological missions. These include communications satellites like Starlink; space stations such as the ISS; scientific satellites like the Hubble; Earth observation satellites from companies like Planet Labs, Umbra, and HawkEye 360; GPS; miniature CubeSats for education and research; and military/defense satellites.

Loading next visibility...
Identifier
66732, 2025-276BU
Orbit
SSO
Country
Flag of USUS
Related business
Manufacturer
Planet
Mission
Operational Commercial Imaging
Bus & Motor
CUBESAT 3U, Unknown motor
Mass
5.7 kg wet, 5.7 kg dry
Launch date (UTC)
2025-11-28 (9 months ago)
Launch vehicle
FALCON 9
Launch site
Air Force Western Test Range (AFWTR)
Object type
Payload
Rocket body
Debris
Shape & HBR
Box + 2 Pan, 1.0 m
Radar Cross Section
0.072 m², Medium (>0.1 m² and < 1m²)

Expand to show TLE details & history
Last TLE update: 14 hours ago

TLE from 14 hours ago
0 FLOCK 4H 29
1 66732U 25276BU  26238.19868448  .00005782  00000-0  26770-3 0  9992
2 66732  97.4128 310.4249 0004841 124.7124 235.4568 15.20489057 41052
Epoch: 2026-08-26T04:46Z
TLE epoch observation values (Epoch: 2026-08-26T04:46:06.339Z)
Latitude
0.00001°
Longitude
-95.55663°
Altitude
509.346 km
Speed
7.608 km/s
True Right ascension
20h 41m 41s
True Declination
0° 00' 00"
Sunlit
Object was in full shadow at epoch
Visualization orbit readout
Latitude
Unknown
Longitude
Unknown
Altitude
Unknown
Speed
Unknown
Apparent Right ascension
Unknown
Apparent Declination
Unknown
Sunlit
N/A
Visualization observer readout
Local Sidereal Time
09:52:36
Azimuth
Unknown
Elevation
Unknown
Doppler factor
Unknown
Orbital elements
Apogee altitude
504.66 km
Perigee altitude
498 km
Semi-major axis
6,879.467 km
Eccentricity
0.00048
Inclination
97.4128°
RAAN
310.4249°
Arg. of periapsis
124.7124°
True anomaly
235.41112°
Mean anomaly
235.4568°
Eccentric anomaly
235.43396°
Mean motion
3.80374 °/min
Orbital period
94.64 mins
BSTAR
0.0002677
Loading maneuver chart data...
Computing Atmospheric mass density...
Loading historical data...
Loading historical data...
Loading historical data...
Loading historical data...
Loading historical data...
Loading historical data...
Loading historical data...

Documentation

Showing up to 5 results
|